Lexington Weather

Lexington, Massachusetts, USA

54°F
12/10/2019 3:54pm 
  • Lexington Conditions: Light rain, Overcast
  • Temperature: 54.3°F / 12.4°CColder 0.9°F than last hour.
  • Dew Point: 52.7°FDecreased 0.2°Fsince last hour.
  • Relative Humidity: 94%Increased 2.0% since last hour.
  • Wind: Wind from SSW SSW 2 mph, 10-min avg: 4 mph, gust: 8 mph
  • Barometer: 29.68 inFalling 0.02  inHg/hr Falling Slowly
  • Visibility: 10 miles
  • Rain Today: 0.04 in
  •   

Regional Weather Roundup
for Boston / Norton, MA

        
000
ASUS41 KBOX 091610
RWRBOX

REGIONAL WEATHER ROUNDUP
NATIONAL WEATHER SERVICE BOSTON/NORTON MA
1100 AM EST MON DEC 09 2019

NOTE:  "FAIR" INDICATES FEW OR NO CLOUDS BELOW 12,000 FEET WITH NO 
SIGNIFICANT WEATHER AND/OR OBSTRUCTIONS TO VISIBILITY.

MAZALL-091700-
EASTERN MASSACHUSETTS
  
CITY           SKY/WX    TMP DP  RH WIND       PRES   REMARKS
BOSTON         RAIN      47  43  86 E5        30.14F VSB 1/2          
BEVERLY        RAIN      43  42  97 SE5       30.14F VSB 1/4          
LAWRENCE       RAIN      40  39  97 CALM      30.15F VSB 1/4          
BEDFORD        RAIN      41  39  93 CALM      30.12F VSB 1/2          
BLUE HILL        N/A     47  47 100 S23G32    30.11                   
NORWOOD        LGT RAIN  47  43  86 CALM      30.13F FOG              
MARSHFIELD     LGT RAIN  48  48 100 SE8       30.14F                  
PLYMOUTH       RAIN      51  50  96 S9G16     30.15F FOG              
TAUNTON        LGT RAIN  52  50  93 S7        30.14F FOG              
NEW BEDFORD    RAIN      53  51  93 S13       30.15F FOG              
$$

MAZALL-091700-
CAPE COD AND THE ISLANDS
  
CITY           SKY/WX    TMP DP  RH WIND       PRES   REMARKS
FALMOUTH       CLOUDY    50  50 100 S21G28    30.16F                  
HYANNIS        LGT RAIN  51  48  89 S14G22    30.16F                  
CHATHAM        LGT RAIN  50  48  93 S12G18    30.20F                  
PROVINCETOWN   LGT RAIN  50  49  96 S13G22    30.17F                  
NANTUCKET      LGT RAIN  51  48  89 S20       30.20F FOG              
MARTHAS VNYRD  LGT RAIN  53  50  89 S18G25    30.16F                  
$$
 
MAZALL-091700-
CENTRAL AND WESTERN MASSACHUSETTS
  
CITY           SKY/WX    TMP DP  RH WIND       PRES   REMARKS
WORCESTER      RAIN      42  41  96 SE3       30.10F VSB 1/2          
FITCHBURG      RAIN      38  37  97 CALM      30.11F VSB 1/4          
ORANGE         LGT RAIN  37  34  89 NW3       30.07F VSB 1/4          
SPRINGFIELD    NOT AVBL                                               
WESTFIELD      RAIN      35  33  92 N5        30.06F FOG     WCI  31  
NORTH ADAMS    LGT RAIN  40  38  93 E12       30.02F FOG              
PITTSFIELD     LGT RAIN  40  38  93 NE3       30.00F VSB 1/2          
$$
 
RIZALL-091700-
RHODE ISLAND
  
CITY           SKY/WX    TMP DP  RH WIND       PRES   REMARKS
PROVIDENCE     RAIN      53  52  96 S13       30.13F FOG              
NEWPORT        RAIN      53  51  93 S10       30.14F FOG              
BLOCK ISLAND   LGT RAIN  54  52  93 S22G28    30.12F                  
SMITHFIELD     RAIN      49  49 100 S9        30.11F FOG              
WESTERLY       LGT RAIN  55  50  83 S7        30.12F                  
$$
 
CTZALL-091700-
CONNECTICUT
  
CITY           SKY/WX    TMP DP  RH WIND       PRES   REMARKS
BRADLEY INTL   LGT RAIN  36  34  92 N6        30.05F VSB 1/2 WCI  31  
HARTFORD       LGT RAIN  38  37  97 NW3       30.04F VSB 1            
BRIDGEPORT     LGT RAIN  55  53  93 S23G32    30.03F FOG              
DANBURY        LGT RAIN  40  40 100 CALM      30.03F FOG              
GROTON         CLOUDY    53  51  93 S14       30.09F                  
NEW HAVEN      LGT RAIN  56  52  86 S17G26    30.04F FOG              
CHESTER        LGT RAIN  54  54 100 SE13G20   30.06F                  
MERIDEN        LGT RAIN  38  38 100 NW5       30.04F FOG              
WILLIMANTIC    LGT RAIN  35  34  96 NE3       30.10F VSB 1            
OXFORD         LGT RAIN  49  49 100 S14       30.03F VSB 1            
$$

MEZ002-015-021-024-NHZ003-005-008-011-012-014-VTZ005-008-091700-
NORTHERN NEW ENGLAND
  
CITY           SKY/WX    TMP DP  RH WIND       PRES   REMARKS
PORTLAND ME    LGT RAIN  40  34  79 CALM      30.18F                  
BANGOR ME      CLOUDY    41  37  86 S6        30.17F                  
CONCORD NH     RAIN      38  36  92 NE3       30.13F FOG              
MANCHESTER NH  RAIN      39  38  96 CALM      30.11F VSB 1/2          
NASHUA NH      RAIN      38  38 100 CALM      30.13F VSB 1/4          
PORTSMOUTH NH  NOT AVBL                                               
JAFFREY NH     LGT RAIN  39  37  92 VRB3      30.06F VSB 1/2          
KEENE NH       RAIN      37  36  93 NE5       30.07F VSB 1            
BURLINGTON VT  CLOUDY    40  33  76 S10G22    30.00F                  
MT. WASHINGTON BLWGSNOW  27  27 100 SW45G53     N/A  VSB 0   WCI   7  
$$

NYZ052-076-091700-
EASTERN NEW YORK
  
CITY           SKY/WX    TMP DP  RH WIND       PRES   REMARKS
ALBANY         LGT RAIN  40  35  83 CALM      30.03F                  
NEW YORK CITY  LGT RAIN  56  52  86 S13       30.02F FOG              
$$
 
ANZALL-091700-
MARINE OBSERVATIONS
  
STATION/POSITION TIME  TEMP    WIND        PRES    VSBY  WAVE
                       AIR SEA DIR/SP/G                  HT/PER
                 (UTC) (F)     (DEG/KT/KT) (MB)    (MI)  (FT/S)
BOSTON BUOY      1550   48 47  130/ 14/ 17 1020.1F         2/ 4
BUZZARDS BAY     1500   51     160/ 22/ 23 1021.8F
NANTUCKET SOUND  1540      43                N/A           2/ 3
MASS BAY-STELLWA 1504   47 46  190/ 14/ 16 1020.3F  1 1/8  2/ 4
ISLE OF SHOALS   1500   44     200/  4/  5 1021.9F
S OF BLOCK IS    1530      52                N/A           6/ 6
$$

......................KEY.........................
  SKY/WX - SKY CONDITION/PRESENT WEATHER
  TMP    - TEMPERATURE IN FAHRENHEIT
  DWPT   - DEWPOINT IN FAHRENHEIT
  RH     - RELATIVE HUMIDITY IN PERCENT
  WIND   - DIRECTION AND SPEED IN MPH
  PRES   - MEAN SEA LEVEL PRESSURE IN INCHES OF HG
  WCI    - WIND CHILL INDEX
  VSB    - VISIBILITY IN MILES
  HX     - HEAT INDEX
  TC     - TEMPERATURE IN CELSIUS
  VRB    - VARIABLE WIND DIRECTION
  N/A    - NOT AVAILABLE
  
      

Other recent Regional Weather Roundups

Tue Dec 10, 3:10pm

Tue Dec 10, 3:01pm

Tue Dec 10, 2:10pm

Tue Dec 10, 2:01pm

Tue Dec 10, 1:10pm

Tue Dec 10, 1:00pm

Tue Dec 10, 12:10pm

Tue Dec 10, 12:00pm

Tue Dec 10, 11:10am

Tue Dec 10, 11:00am

Tue Dec 10, 10:10am

Tue Dec 10, 10:00am

Tue Dec 10, 9:10am

Tue Dec 10, 9:01am

Tue Dec 10, 8:10am

Tue Dec 10, 8:00am

Tue Dec 10, 7:10am

Tue Dec 10, 7:00am

Tue Dec 10, 6:10am

Tue Dec 10, 6:00am

Tue Dec 10, 5:10am

Tue Dec 10, 5:00am

Tue Dec 10, 4:10am

Tue Dec 10, 4:00am

Tue Dec 10, 3:10am

Tue Dec 10, 3:00am

Tue Dec 10, 2:10am

Tue Dec 10, 2:01am

Tue Dec 10, 1:10am

Tue Dec 10, 1:00am

Tue Dec 10, 12:10am

Tue Dec 10, 12:01am

Mon Dec 9, 11:10pm

Mon Dec 9, 11:01pm

Mon Dec 9, 10:10pm

Mon Dec 9, 10:00pm

Mon Dec 9, 9:10pm

Mon Dec 9, 9:01pm

Mon Dec 9, 8:10pm

Mon Dec 9, 8:01pm

Mon Dec 9, 7:10pm

Mon Dec 9, 7:00pm

Mon Dec 9, 6:10pm

Mon Dec 9, 6:00pm

Mon Dec 9, 5:10pm

Mon Dec 9, 5:01pm

Mon Dec 9, 4:10pm

Mon Dec 9, 4:01pm

Mon Dec 9, 3:10pm

Mon Dec 9, 3:01pm

Mon Dec 9, 2:10pm

Mon Dec 9, 2:00pm

Mon Dec 9, 1:10pm

Mon Dec 9, 1:00pm

Mon Dec 9, 12:10pm

Mon Dec 9, 12:00pm

Mon Dec 9, 11:00am

Mon Dec 9, 10:10am

Mon Dec 9, 10:00am

Mon Dec 9, 9:10am

Mon Dec 9, 9:00am

Mon Dec 9, 8:10am

Mon Dec 9, 8:00am

Mon Dec 9, 7:10am

Mon Dec 9, 7:00am

Mon Dec 9, 6:10am

Mon Dec 9, 6:00am

Mon Dec 9, 5:10am

Mon Dec 9, 5:00am

Mon Dec 9, 4:10am

Mon Dec 9, 4:00am

Mon Dec 9, 3:10am

Mon Dec 9, 3:00am

Mon Dec 9, 2:10am

Mon Dec 9, 2:00am

Mon Dec 9, 1:10am

Mon Dec 9, 1:00am

Mon Dec 9, 12:10am

Mon Dec 9, 12:00am

Sun Dec 8, 11:10pm

Sun Dec 8, 11:00pm

Sun Dec 8, 10:10pm

Sun Dec 8, 10:01pm

Sun Dec 8, 9:10pm

Sun Dec 8, 9:01pm

Sun Dec 8, 8:10pm

Sun Dec 8, 8:00pm

Sun Dec 8, 7:10pm

Sun Dec 8, 7:00pm

Sun Dec 8, 6:10pm

Sun Dec 8, 6:01pm

Sun Dec 8, 5:10pm

Sun Dec 8, 5:00pm

Sun Dec 8, 4:10pm

Sun Dec 8, 4:01pm

Sun Dec 8, 3:10pm

Sun Dec 8, 3:01pm

Sun Dec 8, 2:10pm

Sun Dec 8, 2:01pm

Sun Dec 8, 1:10pm

Sun Dec 8, 1:00pm

Sun Dec 8, 12:10pm

Sun Dec 8, 12:01pm

Sun Dec 8, 11:10am

Sun Dec 8, 11:00am

Sun Dec 8, 10:10am

Sun Dec 8, 10:01am

Sun Dec 8, 9:10am

Sun Dec 8, 9:00am

Sun Dec 8, 8:10am

Sun Dec 8, 8:00am

Sun Dec 8, 7:10am

Sun Dec 8, 7:00am

Sun Dec 8, 6:10am

Sun Dec 8, 6:00am

Sun Dec 8, 5:10am

Sun Dec 8, 5:00am

Sun Dec 8, 4:10am

Sun Dec 8, 4:00am

Sun Dec 8, 3:10am

Sun Dec 8, 3:00am

Sun Dec 8, 2:10am

Sun Dec 8, 2:00am

Sun Dec 8, 1:10am

Sun Dec 8, 1:00am

Sun Dec 8, 12:10am

Sun Dec 8, 12:01am

Sat Dec 7, 11:10pm

Sat Dec 7, 11:00pm

Sat Dec 7, 10:10pm

Sat Dec 7, 10:00pm

Sat Dec 7, 9:10pm

Sat Dec 7, 9:00pm

Sat Dec 7, 8:10pm

Sat Dec 7, 8:00pm

Sat Dec 7, 7:10pm

Sat Dec 7, 7:00pm

Sat Dec 7, 6:10pm

Sat Dec 7, 6:00pm

Sat Dec 7, 5:10pm

Sat Dec 7, 5:00pm

Sat Dec 7, 4:10pm

Sat Dec 7, 4:00pm

Meta data:

ID: 16ad8c21-8018-477a-8732-c398469fc603
Link: https://api.weather.gov/products/16ad8c21-8018-477a-8732-c398469fc603